Regional Weather Roundup
Issued by NWS

Home | Current Version | Previous Version | Text Only | Print | Product List | Glossary On
Versions: 1 2 3 4 5 6 7 8 9 10 11 12 13 14 15 16 17 18 19 20 21 22 23 24 25 26 27 28 29 30 31 32 33 34 35 36 37 38 39 40 41 42 43 44 45 46 47 48 49 50
000
ASUS42 KTBW 300315
RWRFL
FLORIDA REGIONAL WEATHER ROUNDUP
NATIONAL WEATHER SERVICE TAMPA BAY RUSKIN FL
1100 PM EDT SUN MAR 29 2015

NOTE: "FAIR" INDICATES FEW OR NO CLOUDS BELOW 12,000 FEET WITH NO
SIGNIFICANT WEATHER AND/OR OBSTRUCTIONS TO VISIBILITY.


FLZ001>010-012>015-112-114-115-300400-
PANHANDLE FLORIDA

CITY           SKY/WX    TMP DP  RH WIND       PRES   REMARKS
PENSACOLA      PTCLDY    63  57  81 S8        30.28S
PENSACOLA NAS  CLOUDY    66  59  78 S12       30.28R
MILTON NAS     CLEAR     53  48  83 E3        30.29
CRESTVIEW      MOCLDY    51  47  86 CALM      30.31S
DUKE FIELD       N/A    N/A N/A N/A SE6         N/A
VALPARAISO     MOCLDY    63  53  69 S8        30.30R
MARY ESTHER    MOCLDY    64  52  65 S13       30.28F
TRI COUNTY     FAIR      51  45  79 SE3       30.33R
PANAMA CITY    MOCLDY    56  50  80 SE3       30.31R
TYNDALL AFB    CLEAR     59  48  67 S8        30.32S
APALACHICOLA   CLEAR     57  45  64 CALM      30.32R

STATION/POSITION SKY/WX   TEMP    WIND        PRES    WAVE   SWELL
                          AIR SEA DIR/SP/G            HT/PER HT/PER
                          (F)     (DEG/KT/KT) (MB)    (FT/S) (FT/S)
30.1N   87.6W              68 67  170/ 14/ 16 1024.4R   3/ 5
29.2N   88.2W              69 70  170/ 16/ 19 1025.0R   3/ 4
28.8N   86.0W              65 75  140/  8/ 12 1026.7R   2/ 5   2/ 5
PANAMA CITY BEAC           62 63  170/ 12/ 13 1026.1R
CAPE SAN BLAS    NOT AVBL
TOWER C                    61     200/  6/  7 1026.6R
28.5N   84.5W              64 68  110/  4/  6 1026.5R   1/ 4   2/ 4

$$
FLZ011-016>038-118-127-128-134-139-239-300400-
NORTH FLORIDA

CITY           SKY/WX    TMP DP  RH WIND       PRES   REMARKS
MARIANNA       CLEAR     55  45  68 SW3       30.32R
TALLAHASSEE    PTCLDY    50  41  71 CALM      30.32R
PERRY          CLEAR     49  44  84 CALM      30.34R
CROSS CITY       N/A     47  42  83 CALM      30.32S
LAKE CITY      FAIR      48  41  76 E5        30.34R
GAINESVILLE    CLEAR     48  40  73 E3        30.34S
MAYPORT NAS    CLEAR     54  41  61 E7        30.35F
JACKSONVILLE   CLEAR     46  40  79 SE5       30.35S WCI  44
JAX NAS        CLEAR     57  42  57 E8        30.36F
JAX CRAIG      CLEAR     48  42  80 CALM      30.36S
JAX CECIL      CLEAR     41  39  93 CALM      30.36S
FERNANDINA BEA FAIR      57  41  54 SE6       30.34F
ST AUGUSTINE   CLEAR     55  43  63 E8        30.37R

STATION/POSITION SKY/WX   TEMP    WIND        PRES    WAVE   SWELL
                          AIR SEA DIR/SP/G            HT/PER HT/PER
                          (F)     (DEG/KT/KT) (MB)    (FT/S) (FT/S)
SHELL POINT                63     160/  7/  9   N/A
KEATON BEACH               53      70/  3/  3 1026.8S
CEDAR KEY                  57      30/  3/  4 1027.1F
FERNANDINA                 53 62  120/  3/  7 1027.4R
30.7N   81.3W                 60                N/A     3/ 6
MAYPORT                    55 62  110/  6/ 11 1027.9R
31.4N   80.9W              55 60  150/ 12/ 14 1027.8F   3/ 7   2/ 7
ST AUGUSTINE               56 60   60/ 10/ 11 1028.7F

$$
FLZ040-043>046-052-053-057-058-063-144-300400-
INTERIOR CENTRAL FLORIDA

CITY           SKY/WX    TMP DP  RH WIND       PRES   REMARKS
OCALA          CLEAR     52  34  50 CALM      30.34S
THE VILLAGES     N/A     52  34  50 NE6       30.24S
LEESBURG       CLEAR     53  36  52 NE7       30.34S
SANFORD        CLEAR     52  40  63 NE8       30.33F
ORLANDO EXEC   CLEAR     54  35  48 NE8       30.33S
ORLANDO INTL   CLEAR     52  36  54 E6        30.34S
WINTER HAVEN   CLEAR     56  40  55 E10       30.35R
BARTOW         FAIR      52  37  58 E6        30.34S
OKEECHOBEE     CLEAR     50  41  71 NE3       30.33S

$$
FLZ041-047-054-059-064-141-147-300400-
EAST CENTRAL FLORIDA

CITY           SKY/WX    TMP DP  RH WIND       PRES   REMARKS
DAYTONA BEACH  CLEAR     54  44  69 N7        30.35F
DELAND           N/A    N/A N/A N/A CALM      30.35S
CAPE CANAVERAL CLEAR     55  44  66 N6        30.32S
PATRICK AFB    CLEAR     58  43  57 N9        30.32S
MELBOURNE      CLEAR     55  42  61 N5        30.32S
VERO BEACH     CLEAR     50  43  77 N5        30.32S
FT PIERCE      CLEAR     50  44  80 CALM      30.32R
STUART         CLEAR     61  46  59 CALM      30.33R

STATION/POSITION SKY/WX   TEMP    WIND        PRES    WAVE   SWELL
                          AIR SEA DIR/SP/G            HT/PER HT/PER
                          (F)     (DEG/KT/KT) (MB)    (FT/S) (FT/S)
28.5N   80.2W              60 70  330/ 14/ 17 1026.8R
28.9N   78.5W              64 75   40/ 14/ 17 1026.9R
TRIDENT PIER               54 71  360/  5/  5 1027.5R
28.4N   80.5W                 70                N/A     2/ 9
27.5N   80.2W                 74                N/A     3/10

$$
FLZ050-056-061-142-242-148-248-149-249-151-251-155-255-
160-260-300400-
WEST CENTRAL FLORIDA

CITY           SKY/WX    TMP DP  RH WIND       PRES   REMARKS
CRYSTAL RIVER  FAIR      50  41  71 CALM      30.34S
INVERNESS      FAIR     N/A N/A N/A CALM      30.35R
BROOKSVILLE    CLEAR     53  37  54 E7        30.34R
ZEPHYRHILLS    FAIR      50  41  71 CALM      30.34S
CLEARWATER     CLEAR     62  49  62 N7        30.32R
TAMPA INTL     CLEAR     61  40  45 VRB5      30.33R
TAMPA EXEC     CLEAR     55  43  62 E5        30.34R
PLANT CITY     CLEAR     57  43  58 E3        30.35R
MACDILL AFB    CLEAR     57  45  62 E15       30.32R
PETER O KNIGHT CLEAR     61  43  51 E12       30.33R
ST PETERSBURG  CLEAR     65  48  54 NE6       30.30R
SARASOTA       CLEAR     57  45  64 E5        30.30R
VENICE         FAIR      59  45  58 E13       30.32R

STATION/POSITION SKY/WX   TEMP    WIND        PRES    WAVE   SWELL
                          AIR SEA DIR/SP/G            HT/PER HT/PER
                          (F)     (DEG/KT/KT) (MB)    (FT/S) (FT/S)
CEDAR KEY                  57      30/  3/  4 1027.1F
28.5N   84.5W              64 68  110/  4/  6 1026.5R   1/ 4   2/ 4
27.3N   84.2W                 71                N/A     2/ 5
CLEARWATER BEACH NOT AVBL
MIDDLE TAMPA BAY           67      80/ 10/ 12 1026.3R
VENICE                     61 72   80/  9/ 12 1026.2R

$$
FLZ066-069-070-075>078-162-262-165-265-300400-
SOUTHWEST FLORIDA AND KEYS

CITY           SKY/WX    TMP DP  RH WIND       PRES   REMARKS
PUNTA GORDA    CLEAR     57  44  62 E10       30.34R
FT MYERS       CLEAR     60  44  55 E10       30.31R
SOUTHWEST INTL CLEAR     59  45  59 E9        30.32R
NAPLES         CLEAR     62  46  55 E13       30.30R
MARCO ISLAND   CLEAR     61  45  55 E8        30.30S
IMMOKALEE      CLEAR    N/A N/A N/A CALM      30.33R
MARATHON       CLEAR     71  57  61 NE13      30.27R
KEY WEST NAS   CLEAR     70  57  63 E13       30.27R
KEY WEST INTL  CLEAR     70  58  65 E9        30.27R

STATION/POSITION SKY/WX   TEMP    WIND        PRES    WAVE   SWELL
                          AIR SEA DIR/SP/G            HT/PER HT/PER
                          (F)     (DEG/KT/KT) (MB)    (FT/S) (FT/S)
VENICE                     61 72   80/  9/ 12 1026.2R
NAPLES                     66 74   60/  3/  4 1025.5R
26.0N   85.6W              69 74   80/ 16/ 19 1025.3R   3/ 4
DRY TORTUGAS               72      60/ 15/ 17 1024.6R
NW FL BAY                  70      70/ 16/ 20 1025.0
SAND KEY                   73      80/ 17/ 20 1024.6R
SOMBRERO KEY               71      60/ 18/ 21 1025.1R
LONG KEY                   71 73   60/ 17/ 19 1025.9R
MOLASSES REEF              71 76   50/ 13/ 15 1024.8R

$$
FLZ067-068-071>074-168-172>174-300400-
SOUTHEAST FLORIDA

CITY           SKY/WX    TMP DP  RH WIND       PRES   REMARKS
W PALM BEACH   PTCLDY    61  48  62 N8        30.30R
FT LAUDER-EXEC CLEAR     63  46  54 N6        30.30R
FT LAUDERDALE  CLEAR     62  47  57 N8        30.29
POMPANO BEACH  CLEAR     63  46  54 N9        30.30R
PEMBROKE PINES CLEAR     63  46  54 N7        30.31R
OPA LOCKA      CLEAR     64  46  52 N8        30.30R
MIAMI          CLEAR     65  46  50 VRB7      30.30R
WEST KENDALL   CLEAR     64  47  53 NE6       30.30R
HOMESTEAD      CLEAR     64  51  62 N7        30.28S

STATION/POSITION SKY/WX   TEMP    WIND        PRES    WAVE   SWELL
                          AIR SEA DIR/SP/G            HT/PER HT/PER
                          (F)     (DEG/KT/KT) (MB)    (FT/S) (FT/S)
PORT EVERGLADES            65     320/  7/ 10 1025.6R
VIRGINIA KEY               68 76   40/  5/  8 1025.0R
LAKE WORTH                 64 74  320/  9/ 12 1025.4R
SETTLEMENT POINT           67      50/ 13/ 15 1026.7R

$$



USA.gov is the U.S. government's official web portal to all federal, state and local government web resources and services.